Flag for Germany Weather past 2 weeks in Hamburg, Hamburg, Germany

Now
68 °F

Passing clouds.


Feels Like: 68 °F
Forecast: 59 / 69 °F
Wind: 6 mph from South

Location: Hamburg-Fuhlsbuettel

Current Time: Aug 28, 2014 at 11:38:00 AM

Latest Report: Aug 28, 2014 at 11:20 AM


Visibility: N/A

Pressure: 30.04 "Hg

Humidity: 49%

Dew point: 48 °F

Location of HamburgLocation

Historic Weather in Hamburg — Graph

°F

Hamburg temperature yesterday

Maximum temperature yesterday: 70 °F (at 3:20 PM)
Minimum temperature yesterday: 45 °F (at 6:20 AM)
Average temperature yesterday: 56 °F

Past Weeks' High & Low Weather Summary

 TemperatureHumidityPressure
High73 °F (Aug 13, 1:50 PM)100% (Aug 15, 3:20 AM)30.04 "Hg (Aug 15, 3:20 AM)
Low39 °F (Aug 26, 4:50 AM)36% (Aug 13, 3:20 PM)29.47 "Hg (Aug 18, 10:20 AM)
Average57 °F80%29.82 "Hg
* Reported Aug 13 10:20 AM — Aug 28 10:20 AM, Hamburg, Weather by CustomWeather, © 2014

Note: Actual official high and low records may vary slightly from our data, if they occured in-between our weather recording intervals... More about our weather records

Advertising

Hamburg weather history for previous 24 hours

 ConditionsComfort  
Time TempWeatherWind HumidityBarometerVisibility
10:20 AM
Aug 28
64 °FPassing clouds.6 mph60%30.04 "HgN/A
9:50 AM63 °FPassing clouds.6 mph68%30.04 "HgN/A
9:20 AM61 °FSunny.5 mph77%30.04 "Hg10 mi
8:50 AM57 °FPassing clouds.3 mph88%30.04 "HgN/A
8:20 AM55 °FSunny.1 mph82%30.04 "Hg10 mi
7:50 AM50 °FSunny.2 mph94%30.04 "Hg10 mi
7:20 AM46 °FClear.2 mph100%30.04 "Hg10 mi
6:50 AM46 °FFog.2 mph100%30.04 "HgN/A
6:20 AM45 °FFog.2 mph100%30.04 "HgN/A
5:50 AM45 °FFog.1 mph100%30.04 "HgN/A
5:20 AM45 °FFog.1 mph100%30.04 "HgN/A
4:50 AM45 °FFog.1 mph100%30.04 "HgN/A
4:20 AM46 °FFog.1 mph100%30.04 "HgN/A
3:50 AM45 °FFog.1 mph100%30.04 "HgN/A
3:20 AM46 °FFog.1 mph100%30.04 "HgN/A
2:50 AM46 °FFog.1 mph100%30.04 "HgN/A
2:20 AM46 °FFog.No wind100%30.04 "HgN/A
1:50 AM46 °FFog.2 mph93%30.04 "HgN/A
1:20 AM48 °FFog.1 mph100%30.04 "HgN/A
12:50 AM50 °FFog.No wind94%30.04 "HgN/A
12:20 AM50 °FClear.1 mph100%30.04 "HgN/A
11:50 PM
Aug 27
50 °FClear.No wind94%30.04 "Hg10 mi
11:20 PM52 °FClear.2 mph94%30.04 "Hg10 mi
10:50 PM54 °FClear.2 mph88%30.04 "Hg10 mi
10:20 PM54 °FClear.2 mph88%30.04 "Hg10 mi
9:50 PM54 °FClear.5 mph88%30.01 "Hg10 mi
9:20 PM55 °FPassing clouds.3 mph88%30.01 "HgN/A
8:50 PM57 °FSunny.3 mph77%30.01 "Hg10 mi
8:20 PM63 °FPassing clouds.3 mph59%30.01 "HgN/A
7:50 PM64 °FSunny.7 mph56%30.01 "Hg10 mi
7:20 PM66 °FSunny.9 mph52%30.01 "Hg10 mi
6:20 PM68 °FPassing clouds.12 mph46%30.01 "HgN/A
4:20 PM70 °FSunny.12 mph43%29.98 "Hg10 mi
3:50 PM70 °FPassing clouds.8 mph40%30.01 "HgN/A
3:20 PM70 °FPassing clouds.8 mph43%29.98 "HgN/A
2:50 PM68 °FScattered clouds.8 mph46%30.01 "HgN/A
2:20 PM68 °FScattered clouds.9 mph46%29.98 "HgN/A
1:50 PM68 °FScattered clouds.10 mph49%30.01 "HgN/A
1:20 PM68 °FScattered clouds.10 mph46%29.98 "HgN/A
12:20 PM66 °FPassing clouds.3 mph56%29.98 "HgN/A
11:50 AM66 °FPassing clouds.5 mph52%29.98 "HgN/A
11:20 AM64 °FPassing clouds.6 mph56%29.98 "HgN/A
Weather by CustomWeather, © 2014

See weather overviewHow to use our weather pages